Москва (Северо-Восток)

Россия / Московская область     55°55′01″N   37°49′58″E
В апреле 2022 года жителям России запретили посещать сайт meteo.paraplan.net по решению Генеральной прокуратуры. Аудитория сайта уменьшилась в 10 раз. Владельцы сайта не видят смысла в поддержке погодного сервера в таких условиях. Сайт будет закрыт в октябре.
темп.,
°C
ветер,
м/с
пор.,
м/с
влажн.,
%
обл.,
%
осадки,
мм/ч
давл.,
гПа
погр.,
м
4 октября, вт
вт400:00+10ююв8188099 0.1 10031516
03:00+10ююв81678100 0.2 10041410
06:00+10ююв81683100 0.0 10051456
09:00+10юв81579100 0.1 10061136
12:00+12ююв81770100 0.1 10061779
15:00+8ю61579100 0.7 10091419
18:00+8ююв51078100 0.0 1010789
21:00+8ююв51083100 0.3 10091138
5 октября, ср
ср500:00+7ю5985100 0.6 10091001
03:00+6ю4887100 1.1 1010944
06:00+6ю3690100 0.4 1010910
09:00+6ю2491100 2.0 1010783
12:00+7зюз2388100 0.8 1012448
15:00+6з3588100 1.0 1013657
18:00+6з3684100 0.2 1015459
21:00+5з3690100 0.3 1015841
6 октября, чт
чт600:00+5з3790100 0.1 1016438
03:00+5з369079 0.1 1017291
06:00+3з25955 0.0 1017114
09:00+6з23855 0.0 1018240
12:00+9зюз24670 0.0 1018689
15:00+11зюз347384 0.0 1017829
18:00+10ююз378662 0.0 1017344
21:00+9ююз4119529 0.0 1016355
7 октября, пт
пт700:00+9юз41296100 0.0 1015404
03:00+9з41396100 0.0 1015471
06:00+11зсз5118459 0.0 1016759
09:00+10зсз5128497 0.0 1019799
12:00+10з51074100 0.0 10211254
15:00+11з610703 0.0 10211086
18:00+10з410770 0.0 1022440
21:00+8зюз411860 0.0 1024378
8 октября, сб
сб800:00+7зюз39924 0.0 1024226
03:00+6зюз38950 0.0 1024193
06:00+6юз39955 0.0 1024218
09:00+8юз498510 0.0 1024355
12:00+12юз476842 0.0 1023710
15:00+14ююз576046 0.0 10201010
18:00+11ююз4107455 0.0 1019409
21:00+10ююз51379100 0.0 1018608